Stündliche Wetter Abaliget

Heute, 22 Juni, Dienstag

Zeit Temperatur Niederschläge Wind Luftdruck Luftfeuchtigkeit
00:00 +23°C° 0 mm 2 m/S 740 mmHg 59%
01:00 +21°C° 0 mm 2 m/S 740 mmHg 60%
02:00 +21°C° 0 mm 2 m/S 740 mmHg 60%
03:00 +21°C° 0 mm 2 m/S 740 mmHg 61%
04:00 +21°C° 0 mm 2 m/S 740 mmHg 62%
05:00 +24°C° 0 mm 3 m/S 740 mmHg 59%
06:00 +25°C° 0 mm 3 m/S 740 mmHg 56%
07:00 +27°C° 0 mm 3 m/S 741 mmHg 53%
08:00 +29°C° 0 mm 4 m/S 741 mmHg 49%
09:00 +32°C° 0 mm 4 m/S 741 mmHg 45%
10:00 +33°C° 0 mm 5 m/S 741 mmHg 41%
11:00 +34°C° 0 mm 5 m/S 741 mmHg 38%
12:00 +35°C° 0 mm 5 m/S 741 mmHg 34%
13:00 +36°C° 0 mm 5 m/S 741 mmHg 31%
14:00 +37°C° 0 mm 4 m/S 741 mmHg 30%
15:00 +37°C° 0 mm 4 m/S 741 mmHg 28%
16:00 +37°C° 0 mm 4 m/S 741 mmHg 27%
17:00 +35°C° 0 mm 3 m/S 741 mmHg 35%
18:00 +31°C° 0 mm 2 m/S 741 mmHg 42%
19:00 +29°C° 0 mm 2 m/S 741 mmHg 49%
20:00 +28°C° 0 mm 2 m/S 742 mmHg 50%
21:00 +26°C° 0 mm 2 m/S 742 mmHg 51%
22:00 +24°C° 0 mm 2 m/S 742 mmHg 53%
23:00 +24°C° 0 mm 2 m/S 742 mmHg 53%

Morgen, 23 Juni, Mittwoch

Zeit Temperatur Niederschläge Wind Luftdruck Luftfeuchtigkeit
00:00 +23°C° 0 mm 2 m/S 743 mmHg 53%
01:00 +21°C° 0 mm 2 m/S 743 mmHg 54%
02:00 +21°C° 0 mm 2 m/S 743 mmHg 56%
03:00 +20°C° 0 mm 2 m/S 743 mmHg 57%
04:00 +20°C° 0 mm 2 m/S 743 mmHg 59%
05:00 +21°C° 0 mm 2 m/S 744 mmHg 58%
06:00 +24°C° 0 mm 3 m/S 744 mmHg 57%
07:00 +25°C° 0 mm 4 m/S 745 mmHg 57%
08:00 +27°C° 0 mm 4 m/S 745 mmHg 53%
09:00 +29°C° 0 mm 4 m/S 745 mmHg 50%
10:00 +32°C° 0 mm 4 m/S 745 mmHg 46%
11:00 +33°C° 0 mm 4 m/S 745 mmHg 42%
12:00 +34°C° 0 mm 4 m/S 745 mmHg 38%
13:00 +36°C° 0 mm 3 m/S 745 mmHg 35%
14:00 +36°C° 0 mm 3 m/S 745 mmHg 34%
15:00 +36°C° 0 mm 3 m/S 745 mmHg 33%
16:00 +36°C° 0 mm 2 m/S 745 mmHg 32%
17:00 +34°C° 0 mm 2 m/S 745 mmHg 39%
18:00 +31°C° 0 mm 2 m/S 745 mmHg 47%
19:00 +29°C° 0 mm 2 m/S 745 mmHg 54%
20:00 +28°C° 0 mm 2 m/S 745 mmHg 56%
21:00 +27°C° 0 mm 2 m/S 745 mmHg 59%
22:00 +26°C° 0 mm 2 m/S 745 mmHg 62%
23:00 +25°C° 0 mm 2 m/S 745 mmHg 63%

übermorgen, 24 Juni, Donnerstag

Zeit Temperatur Niederschläge Wind Luftdruck Luftfeuchtigkeit
00:00 +25°C° 0 mm 2 m/S 745 mmHg 63%
01:00 +25°C° 0 mm 2 m/S 745 mmHg 64%
02:00 +24°C° 0 mm 2 m/S 745 mmHg 66%
03:00 +24°C° 0 mm 1 m/S 745 mmHg 67%
04:00 +23°C° 0 mm 1 m/S 745 mmHg 69%
05:00 +25°C° 0 mm 1 m/S 745 mmHg 64%
06:00 +27°C° 0 mm 1 m/S 745 mmHg 59%
07:00 +29°C° 0 mm 1 m/S 745 mmHg 54%
08:00 +31°C° 0 mm 1 m/S 745 mmHg 49%
09:00 +33°C° 0 mm 1 m/S 745 mmHg 44%
10:00 +35°C° 0 mm 1 m/S 745 mmHg 38%
11:00 +37°C° 0 mm 2 m/S 745 mmHg 34%
12:00 +38°C° 0 mm 2 m/S 745 mmHg 30%
13:00 +40°C° 0 mm 2 m/S 745 mmHg 26%
14:00 +40°C° 0 mm 3 m/S 744 mmHg 26%
15:00 +40°C° 0 mm 3 m/S 744 mmHg 25%
16:00 +40°C° 0 mm 3 m/S 744 mmHg 24%
17:00 +38°C° 0 mm 3 m/S 744 mmHg 31%
18:00 +36°C° 0 mm 3 m/S 744 mmHg 38%
19:00 +34°C° 0 mm 2 m/S 743 mmHg 45%
20:00 +31°C° 0 mm 2 m/S 743 mmHg 47%
21:00 +29°C° 0 mm 2 m/S 744 mmHg 49%
22:00 +27°C° 0 mm 2 m/S 744 mmHg 52%
23:00 +26°C° 0 mm 2 m/S 744 mmHg 53%

25 Juni, Freitag

Zeit Temperatur Niederschläge Wind Luftdruck Luftfeuchtigkeit
00:00 +25°C° 0 mm 2 m/S 744 mmHg 54%
01:00 +24°C° 0 mm 2 m/S 744 mmHg 55%
02:00 +23°C° 0.1 mm 2 m/S 744 mmHg 60%
03:00 +23°C° 0.1 mm 1 m/S 744 mmHg 65%
04:00 +22°C° 0.1 mm 1 m/S 745 mmHg 71%
05:00 +23°C° 0 mm 1 m/S 745 mmHg 68%
06:00 +25°C° 0 mm 1 m/S 745 mmHg 64%
07:00 +26°C° 0 mm 2 m/S 745 mmHg 61%
08:00 +28°C° 0 mm 2 m/S 745 mmHg 54%
09:00 +30°C° 0 mm 2 m/S 746 mmHg 48%
10:00 +32°C° 0 mm 2 m/S 746 mmHg 41%
11:00 +34°C° 0 mm 2 m/S 745 mmHg 37%
12:00 +35°C° 0 mm 2 m/S 745 mmHg 33%
13:00 +37°C° 0 mm 3 m/S 745 mmHg 29%
14:00 +37°C° 0 mm 3 m/S 744 mmHg 28%
15:00 +37°C° 0 mm 3 m/S 744 mmHg 27%
16:00 +37°C° 0 mm 3 m/S 743 mmHg 27%
17:00 +34°C° 0.2 mm 4 m/S 743 mmHg 36%
18:00 +32°C° 0.2 mm 4 m/S 743 mmHg 45%
19:00 +28°C° 0.2 mm 4 m/S 744 mmHg 55%
20:00 +26°C° 0.7 mm 3 m/S 744 mmHg 68%
21:00 +22°C° 0.7 mm 3 m/S 745 mmHg 82%
22:00 +20°C° 0.7 mm 3 m/S 745 mmHg 95%
23:00 +19°C° 0.2 mm 2 m/S 745 mmHg 94%

26 Juni, Samstag

Zeit Temperatur Niederschläge Wind Luftdruck Luftfeuchtigkeit
00:00 +19°C° 0.2 mm 2 m/S 745 mmHg 93%
01:00 +20°C° 0.2 mm 1 m/S 745 mmHg 92%
02:00 +19°C° 0.2 mm 1 m/S 745 mmHg 93%
03:00 +19°C° 0.2 mm 1 m/S 745 mmHg 94%
04:00 +18°C° 0.2 mm 1 m/S 745 mmHg 95%
05:00 +18°C° 0.1 mm 2 m/S 746 mmHg 92%
06:00 +19°C° 0.1 mm 4 m/S 746 mmHg 89%
07:00 +20°C° 0.1 mm 5 m/S 746 mmHg 86%
08:00 +22°C° 0 mm 5 m/S 747 mmHg 75%
09:00 +25°C° 0 mm 5 m/S 747 mmHg 64%
10:00 +26°C° 0 mm 5 m/S 747 mmHg 53%
11:00 +27°C° 0 mm 5 m/S 747 mmHg 49%
12:00 +28°C° 0 mm 5 m/S 747 mmHg 45%
13:00 +29°C° 0 mm 4 m/S 746 mmHg 41%
14:00 +29°C° 0 mm 5 m/S 746 mmHg 39%
15:00 +29°C° 0 mm 5 m/S 746 mmHg 38%
16:00 +29°C° 0 mm 5 m/S 746 mmHg 37%
17:00 +28°C° 0 mm 4 m/S 746 mmHg 42%
18:00 +26°C° 0 mm 3 m/S 746 mmHg 47%
19:00 +25°C° 0 mm 2 m/S 746 mmHg 52%
20:00 +23°C° 0 mm 2 m/S 746 mmHg 56%
21:00 +21°C° 0 mm 2 m/S 747 mmHg 60%
22:00 +20°C° 0 mm 2 m/S 747 mmHg 64%
23:00 +19°C° 0 mm 2 m/S 747 mmHg 68%

27 Juni, Sonntag

Zeit Temperatur Niederschläge Wind Luftdruck Luftfeuchtigkeit
00:00 +19°C° 0 mm 1 m/S 747 mmHg 73%
01:00 +19°C° 0 mm 1 m/S 747 mmHg 77%
02:00 +18°C° 0 mm 1 m/S 747 mmHg 78%
03:00 +18°C° 0 mm 1 m/S 747 mmHg 80%
04:00 +18°C° 0 mm 1 m/S 747 mmHg 81%
05:00 +19°C° 0 mm 2 m/S 747 mmHg 73%
06:00 +21°C° 0 mm 2 m/S 748 mmHg 64%
07:00 +24°C° 0 mm 3 m/S 748 mmHg 55%
08:00 +25°C° 0 mm 3 m/S 748 mmHg 49%
09:00 +27°C° 0 mm 3 m/S 748 mmHg 42%
10:00 +29°C° 0 mm 3 m/S 748 mmHg 36%
11:00 +29°C° 0 mm 3 m/S 748 mmHg 33%
12:00 +30°C° 0 mm 3 m/S 747 mmHg 31%
13:00 +31°C° 0 mm 3 m/S 747 mmHg 28%
14:00 +31°C° 0 mm 3 m/S 747 mmHg 27%
15:00 +33°C° 0 mm 3 m/S 747 mmHg 27%
16:00 +33°C° 0 mm 3 m/S 747 mmHg 26%
17:00 +30°C° 0 mm 2 m/S 747 mmHg 32%
18:00 +28°C° 0 mm 2 m/S 747 mmHg 37%
19:00 +26°C° 0 mm 1 m/S 747 mmHg 43%
20:00 +25°C° 0 mm 1 m/S 747 mmHg 45%
21:00 +23°C° 0 mm 1 m/S 747 mmHg 48%
22:00 +22°C° 0 mm 1 m/S 748 mmHg 50%
23:00 +21°C° 0 mm 1 m/S 748 mmHg 52%
Mehr zeigen

Wir brauchen deine Erlaubnis

Meteoprog und unser Service Anbieter werden persönliche Daten aufbewahren, so wie Cookies, Geräte Bezeichnung oder ähnliche Technologien von deinem Gerät und Prozess, so wie Persönliche Daten Inhalte und Werbungen, genauso wie social Media und den Verkehr zu analysieren.

  • Aufbewahrung und/oder Zugang zu deiner Geräte Informationen.

    Cookies, Geräte Bezeichnung oder andere Informationen, können aufbewahrt oder Zugang zu deinem Gerät erhalten, für den Grund, der oben angegeben wird.

  • Personalisierte Werbung und Inhalte, Messungen, Einblick in das Publikum und Produkt Entwicklung.

    Werbungen und Inhalte können personalisiert werden, basierend auf ein Profil. Mehr Daten können besser personalisierte Werbungen und Inhalte hinzufügen. Werbung und Inhalte können gezeigt und gemessen werden. Einblicke über das Publikum, welche die Werbung gesehen haben und den Inhalt, können abgeleitet werden. So wie Daten können genutzt werden, um es zu verbessern oder die Benutzer Erfahrung zu verbessern das System und die Software.

Wenn du “Ich stimme zu” klickst, erlaubst du uns, die Cookies zu benutzen die Geräte Bezeichnung, den Web oder ähnliche Technologien zu benutzen. Deine Settings, können in deinem Gerät bei deinem Browser geändert werden.

Für den bestimmten Zweck, berechtigten Interessen beruhen darauf, mehr als auf den Inhalt. Du kannst mehr darüber in unseren Privaten und Cookie Politik lesen.